Location: Blanot
(47.1713°N, 4.2340°E)
Time: 12:44:04
(UTC+00:00)

X-37B - Pass Details

Date: 15 March 2021
Orbit: 380 x 394 km, 45.0° (Epoch: 07 April)

Event Time Altitude Azimuth Distance (km) Brightness Sun altitude
Rises 18:33:44 0° 241° (WSW) 2,263 5.4 -8.4°
Reaches altitude 10° 18:35:52 10° 233° (SW) 1,413 4.1 -8.8°
Maximum altitude 18:38:51 38° 163° (SSE) 616 1.4 -9.3°
Enters shadow 18:41:11 15° 99° (E) 1,176 2.3 -9.7°
